#timestamp,LO_Frequency,Hit,StdDev 
1634990415.8,286046999.9,N
1634990435.6,286047000.4,N
1634990455.5,286046998.5,N
1634990475.3,286046998.5,N
1634990495.1,286047000.4,N
1634990515.9,286047000.4,N
1634990535.7,286046998.2,N
1634990555.5,286046999.4,N
1634990575.4,286046998.9,N
1634990595.2,286046997.0,N
1634990615.0,286046999.3,N
1634990615.9,286046999.3,N
1634990635.8,286046996.5,N
1634990655.6,286046999.1,N
1634990675.4,286046997.0,N
1634990695.3,286046997.0,N
1634990715.1,286046997.6,N
1634990716.0,286046997.6,N
1634990735.8,286046999.6,N
1634990755.7,286046996.5,Y
1634990775.5,286046997.3,P
1634990795.3,286046996.7,P
1634990815.2,286046996.8,P
1634990835.9,286046997.4,N
1634990855.7,286046996.6,Y
1634990875.6,286046999.1,P
1634990895.4,286046999.1,N
1634990945.2,286046999.3,E
1634990955.2,286046998.2,N
1634990975.9,286046998.8,P
1634990995.7,286046999.1,P
1634991015.6,286046999.3,N
1634991035.4,286046996.9,Y
1634991055.2,286046996.9,P
1634991075.1,286046997.9,N
1634991076.0,286047011.9,P
1634991095.8,286046998.8,N
1634991115.6,286046997.0,N
1634991135.5,286046995.0,N
1634991155.3,286046995.5,N
1634991175.1,286046996.3,N
1634991195.9,286046996.1,N
1634991215.7,286046995.7,N
1634991235.5,286046996.3,N
1634991255.3,286046996.4,N
1634991275.2,286046995.2,N
1634991295.0,286046995.8,N
1634991295.9,286046995.8,N
1634991315.7,286046994.1,N
1634991335.6,286046994.5,N
1634991355.4,286046993.3,N
1634991375.2,286046993.7,N
1634991395.1,286046994.5,N
1634991396.0,286046994.5,N
1634991415.8,286046993.9,N
1634991435.6,286046993.9,N
1634991455.5,286046993.9,N
1634991475.3,286046993.7,N
1634991495.1,286046993.9,N
1634991515.9,286046994.1,N
1634991535.7,286046991.9,N
1634991555.5,286046994.8,N
1634991575.4,286046994.5,N
1634991595.2,286046994.1,N
1634991615.0,286046994.8,N
1634991615.9,286046994.8,N
1634991635.8,286046992.9,Y
1634991655.6,286046999.6,P
1634991675.4,286046996.7,N
1634991695.3,286046998.9,N
1634991715.1,286046999.1,N
1634991735.8,286046996.5,N
1634991755.7,286046999.1,N
1634991775.5,286046995.6,N
1634991795.3,286046995.9,N
1634991815.2,286046997.8,N
1634991835.9,286046996.6,N
1634991855.7,286046999.1,N
1634991875.6,286046996.6,N
1634991895.4,286046999.2,N
1634991915.2,286046999.3,N
1634991935.1,286046999.2,N
1634991936.0,286046999.2,N
1634991955.8,286046997.9,N
1634991975.6,286046997.1,N
1634991995.5,286046999.0,N
1634992015.3,286046999.1,N
1634992035.1,286046998.3,N
1634992055.9,286047000.4,N
1634992075.7,286047000.6,N
1634992095.5,286046998.7,N
1634992115.4,286047000.9,N
1634992135.2,286046998.9,N
1634992155.0,286046996.5,N
1634992155.9,286046996.5,N
1634992175.8,286046996.9,N
1634992195.6,286046999.1,N
1634992215.4,286046996.6,N
1634992235.3,286047001.2,N
1634992255.1,286047002.3,N
1634992256.0,286047002.3,N
1634992275.8,286046998.3,N
1634992295.7,286047000.6,N
1634992315.5,286047003.8,N
1634992335.3,286047001.7,N
1634992355.2,286046999.8,N
1634992375.9,286047000.2,N
1634992395.7,286047000.8,N
1634992415.6,286047000.7,N
1634992435.4,286047002.5,N
1634992455.2,286047002.6,N
1634992475.1,286047000.5,N
1634992476.0,286047000.5,N
1634992495.8,286046999.8,N
1634992515.6,286047002.6,N
1634992535.5,286047002.2,N
1634992555.3,286047002.4,N
1634992575.1,286047002.8,N
1634992595.9,286047000.6,N
1634992615.7,286046998.2,N
1634992635.5,286047000.8,N
1634992655.4,286046998.1,N
1634992675.2,286047001.2,N
1634992695.0,286047001.0,N
1634992695.9,286047001.0,N
1634992715.8,286047000.9,N
1634992735.6,286046999.9,N
1634992755.4,286046999.7,N
1634992775.3,286047002.4,N
1634992795.1,286047000.0,N
1634992796.0,286047000.0,N
1634992815.8,286047000.7,N
1634992835.7,286046998.3,N
1634992855.5,286046998.9,N
1634992875.3,286047000.9,N
1634992895.2,286047001.2,N
1634992915.9,286046998.4,N
1634992935.7,286046999.6,N
1634992955.6,286047001.1,N
1634992975.4,286046998.1,N
1634992995.2,286047001.1,N
1634993015.1,286046998.1,N
1634993016.0,286046998.1,N
1634993035.8,286046999.7,N
1634993055.6,286047000.3,N
1634993075.5,286047000.9,N
1634993095.3,286047000.3,N
1634993115.1,286047000.3,N
1634993135.9,286047000.0,N
1634993155.7,286047000.8,N
1634993175.5,286046999.8,N
1634993195.4,286047000.9,N
1634993215.2,286046998.5,N
1634993235.0,286046998.5,N
1634993235.9,286046998.5,N
1634993255.8,286047000.9,N
1634993275.6,286047000.9,N
1634993295.4,286047000.5,N
1634993315.3,286047001.4,N
1634993335.1,286047002.0,N
1634993336.0,286047002.0,N
1634993385.8,286047001.5,E
1634993395.8,286047002.3,N
1634993415.6,286047000.8,P
1634993435.4,286047001.0,N
1634993455.3,286047001.1,N
1634993475.1,286047000.7,N
1634993476.0,286047000.7,N
1634993495.8,286047001.1,N
1634993515.7,286047000.6,N
1634993535.5,286047000.6,N
1634993555.3,286047000.3,N
1634993575.2,286047000.8,N
1634993595.9,286047001.2,N
1634993615.7,286047001.2,N
1634993635.6,286046999.3,N
1634993655.4,286046998.3,N
1634993675.2,286047000.1,N
1634993695.1,286047002.7,Y
1634993696.0,286047002.7,P
1634993715.8,286047002.6,N
1634993735.6,286046999.7,N
1634993755.5,286047002.7,N
1634993775.3,286046999.7,N
1634993795.1,286047001.5,N
1634993815.9,286047004.4,Y
1634993835.7,286047004.4,P
1634993855.5,286047004.4,N
1634993875.4,286047004.4,P
1634993895.2,286047004.0,Y
1634993915.0,286047000.8,P
1634993915.9,286047000.8,N
1634993935.8,286047000.2,N
1634993955.6,286047002.0,N
1634993975.4,286047000.1,N
1634993995.3,286047000.6,N
